Location: Jockgrim
(49.0945°N, 8.2742°E)
Time: 10:19:53
(UTC+00:00)

Daily predictions for brighter satellites

Satellite Brightness Start Highest point End
(mag) Time Altitude Azimuth Time Altitude Azimuth Time Altitude Azimuth
USA 308 3.4 16:00:20 10° WNW 16:04:26 44° N 16:08:32 10° E
SL-16 R/B 3.2 15:59:47 10° NNW 16:04:26 25° NE 16:09:05 10° E
Cosmos 2221 3.1 16:00:26 10° SSW 16:04:40 61° WNW 16:08:59 10° N
Okean O Rocket 3.3 16:03:06 10° E 16:05:07 13° NE 16:07:08 10° NNE
MOS 1 Rocket 3.8 16:00:32 10° N 16:05:26 64° WNW 16:09:59 10° SSW
CZ-2C R/B 2.8 16:01:50 10° SSE 16:06:37 68° ENE 16:11:20 10° N
Envisat 4.4 16:02:34 10° S 16:07:24 44° W 16:12:17 10° NNW
Cosmos 2082 Rocket 2.7 16:03:18 10° S 16:08:37 43° ESE 16:13:56 10° NE
Sich 1 3.3 16:04:33 10° N 16:08:44 47° ENE 16:12:55 10° SSE
Cosmos 1500 Rocket 3.7 16:04:23 10° N 16:08:50 84° W 16:13:13 10° S
Cosmos 540 Rocket 3.6 16:04:35 10° S 16:09:35 61° ESE 16:14:38 10° NNE
ARGOS 4.4 16:07:28 10° E 16:11:13 19° ENE 16:14:57 10° NNE
FengYun 1-2 T 4.3 16:08:57 10° SSE 16:14:25 61° ENE 16:19:52 10° N
COSMOS 2455 3.0 16:09:12 10° SSW 16:15:05 59° ESE 16:21:01 10° NE
SMAP 3.3 16:12:40 10° SE 16:17:08 48° ENE 16:21:37 10° N
NOAA 6 4.2 16:13:40 10° SE 16:18:38 52° ENE 16:23:36 10° N
Cosmos 1805 Rocket 3.5 16:16:56 10° N 16:21:19 80° E 16:25:38 10° SSE
Cosmos 2278 3.7 16:16:08 10° NNW 16:21:49 64° ENE 16:27:28 10° SE
Cosmos 1833 Rocket 2.8 16:16:15 10° SSW 16:21:52 79° WNW 16:27:33 10° NNE
Cosmos 1933 3.3 16:17:54 10° S 16:21:56 74° E 16:25:58 10° NNE
Cosmos 2333 Rocket 3.9 16:20:18 10° N 16:23:20 14° NNE 16:26:02 11° ENE
Cosmos 1602 3.7 16:20:19 10° N 16:24:12 89° ENE 16:28:05 10° S
CZ-4B DEB 4.4 16:22:32 10° SE 16:27:49 50° ENE 16:33:06 10° N
USA 305 3.2 16:24:47 10° WNW 16:28:56 50° NNE 16:32:51 11° E
CZ-2C R/B 3.8 16:26:07 10° NE 16:29:54 20° E 16:33:40 10° SE
SL-24 R/B - RUBIN 2 4.3 16:26:47 10° NW 16:31:14 58° SW 16:35:28 10° SSE
Cosmos 2219 Rocket 3.9 16:28:48 10° N 16:31:25 13° NNE 16:33:21 11° NE
CZ-4B R/B 3.0 16:29:14 10° S 16:33:10 75° WSW 16:36:55 10° NNW
Cosmos 1500 3.0 16:30:44 10° N 16:34:29 76° E 16:38:11 10° SSE
Meteor 1-14 Rocket 4.4 16:28:54 10° N 16:34:41 58° ENE 16:40:32 10° SSE
Cosmos 44 Rocket 3.3 16:31:05 10° NW 16:36:01 63° NE 16:40:45 10° SE
COSMOS 2406 3.5 16:35:46 10° SW 16:41:31 74° WNW 16:47:15 10° NNE
Cosmos 1814 Rocket 4.1 16:37:23 10° S 16:42:27 55° ESE 16:47:31 10° NNE
Cosmos 921 Rocket 4.0 16:40:18 10° SSE 16:43:46 25° E 16:45:57 17° ENE
Cosmos 1570 Rocket 4.1 16:44:14 10° S 16:49:19 55° ESE 16:54:15 11° NNE
MOS 1-B Rocket 4.5 16:45:39 10° NNE 16:51:27 45° E 16:58:02 10° S
CZ-4B R/B 3.4 16:48:49 10° SE 16:53:54 45° ENE 16:58:57 10° N
Cosmos 2298 Rocket 4.1 16:49:29 10° NNW 16:54:43 52° ENE 16:59:55 10° SE
USA 267 3.4 16:50:26 16° ENE 16:55:49 66° SE 17:02:19 10° SW
CZ-2D R/B 3.2 16:52:22 10° SSE 16:56:08 59° ENE 16:59:55 10° N
ATLAS CENTAUR R/B 2.8 16:49:31 10° WSW 16:58:45 72° NW 17:01:31 21° NE
MOS 1-B 4.3 16:53:03 10° SSE 16:58:45 65° ENE 17:04:29 10° N
Cosmos 1939 Rocket 3.5 16:54:47 10° S 16:58:51 61° W 17:02:52 10° NNW
USA 306 2.9 16:57:07 10° WNW 17:01:20 62° NNE 17:03:51 23° E
COSMO-SKYMED 1 3.3 16:59:10 20° NE 17:01:21 31° E 17:05:12 10° SSE
Cosmos 1633 Rocket 2.9 16:57:03 10° N 17:01:26 75° ENE 17:05:49 10° SSE
Cosmos 1151 Rocket 2.9 16:57:29 10° S 17:01:48 71° E 17:06:10 10° NNE
Cosmos 1666 2.5 16:59:28 10° N 17:03:12 90° E 17:06:55 10° S
Cosmos 1782 3.4 17:00:01 10° SSW 17:03:56 58° WNW 17:07:53 10° N
APEX 4.0 17:01:03 10° S 17:04:08 26° ESE 17:04:23 25° ESE
Meteor 2-6 Rocket 4.3 16:59:18 10° S 17:04:51 56° E 17:10:17 10° NNE
Cosmos 2360 Rocket 2.9 17:00:33 10° NNW 17:05:35 31° NE 17:08:18 21° E
ISS -0.8 17:04:08 10° W 17:06:31 18° SW 17:08:53 10° S
SeaSat 1 4.4 17:03:55 10° N 17:07:38 22° NW 17:11:20 10° W
PAYLOAD B 4.2 17:03:12 10° SSE 17:08:48 81° ENE 17:14:25 10° NNW
Cosmos 1900 4.3 17:04:00 10° SSW 17:08:49 69° ESE 17:11:52 23° NE
YAOGAN 1 4.1 17:11:21 19° NNE 17:11:21 19° NNE 17:13:11 10° N
Cosmos 1818 3.7 17:06:03 10° NW 17:11:33 77° SW 17:16:59 10° SSE
CZ-2C R/B 3.9 17:15:14 10° SSW 17:16:39 11° S 17:18:03 10° SSE
Cosmos 2279 Rocket 3.9 17:11:40 10° S 17:17:53 87° E 17:24:07 10° N
ATLAS 5 CENTAUR R/B 2.1 17:11:03 10° NW 17:18:28 62° NNE 17:19:39 36° E
Cosmos 1536 4.4 17:15:00 10° N 17:16:30 19° NNE 17:16:30 19° NNE
Cosmos 2142 Rocket 4.5 17:12:38 10° S 17:18:49 88° W 17:25:08 10° N
Cosmos 841 Rocket 4.3 17:14:19 10° SW 17:19:18 49° WNW 17:24:20 10° NNE
Meteor 2-15 4.4 17:14:16 10° S 17:20:14 60° E 17:26:13 10° NNE
Cosmos 2266 Rocket 4.0 17:14:10 10° N 17:20:30 61° ENE 17:26:51 10° SSE
ERBS 3.8 17:18:25 10° NW 17:20:46 22° N 17:20:46 22° N
USA 307 2.8 17:17:40 10° WNW 17:21:56 72° NNE 17:23:33 36° E
CZ-4C R/B 3.7 17:15:26 10° NW 17:22:31 58° WSW 17:30:44 10° SSE
Lacrosse 5 rocket 2.1 17:21:07 10° WNW 17:24:55 50° SW 17:28:56 10° SSE
SL-08 RB Rocket 3.9 17:21:00 10° SE 17:25:24 45° ENE 17:29:46 10° N
NOSS 3-4 (A) 4.4 17:20:18 10° NW 17:26:21 35° NNE 17:28:52 28° ENE
NOSS 3-4 (C) 4.4 17:20:24 10° NW 17:26:26 35° NNE 17:28:56 28° ENE
Cosmos 1933 Rocket 3.5 17:24:16 10° N 17:28:33 54° ENE 17:32:48 10° SSE
Cosmos 2322 Rocket 2.2 17:22:52 10° NNW 17:28:34 63° ENE 17:34:13 10° SE
Cosmos 2208 Rocket 4.1 17:23:12 10° SSW 17:28:38 89° WNW 17:32:51 18° NNE
ATLAS 2AS CENTAUR R/B 3.9 17:22:23 10° NW 17:28:44 28° NNE 17:31:18 23° NE
COSMOS 2428 4.1 17:25:01 10° N 17:28:43 20° NNE 17:28:43 20° NNE
Cosmos 2150 Rocket 3.9 17:25:08 10° NNW 17:30:21 90° S 17:35:36 10° SSE
USA 234 3.4 17:23:55 10° SE 17:30:28 75° SW 17:37:02 10° WNW
Cosmos 1980 Rocket 4.1 17:26:30 10° NW 17:31:25 31° WSW 17:36:17 10° SSW
Cosmos 1328 Rocket 3.6 17:27:26 10° SSW 17:31:53 81° W 17:36:01 12° N
Cosmos 1470 Rocket 3.6 17:30:07 10° N 17:34:36 85° W 17:39:06 10° S
Cosmos 1544 2.9 17:31:06 10° N 17:34:44 80° E 17:38:22 10° SSE
Cosmos 1125 Rocket 3.5 17:31:18 10° NNW 17:36:34 87° WSW 17:41:51 10° SSE
Cosmos 1867 4.0 17:32:40 10° S 17:37:43 40° ESE 17:38:28 38° E
Cosmos 1812 4.0 17:34:10 10° SW 17:37:48 40° WNW 17:41:27 10° N
X-37B 2.5 17:36:13 10° SSW 17:37:49 19° S 17:37:49 19° S
H-2A R/B 2.5 17:33:58 10° S 17:39:02 62° W 17:44:00 10° NNW
Okean O Rocket 1.5 17:36:19 10° SSE 17:40:46 85° ENE 17:45:15 10° NNW
Meteor 1-11 Rocket 3.6 17:36:06 10° N 17:41:47 79° ENE 17:47:33 10° SSE
Meteor 2-8 Rocket 4.5 17:35:41 10° S 17:41:51 83° W 17:48:04 10° N
Meteor 1-10 Rocket 4.1 17:36:14 10° S 17:41:58 80° E 17:47:11 12° NNE
GEOS 3 Rocket 4.0 17:41:55 40° ENE 17:42:36 42° NE 17:47:28 10° NNW
USA 32 4.0 17:38:53 10° SSE 17:43:58 56° E 17:46:22 30° NNE
ATLAS CENTAUR R/B 3.9 17:42:20 10° NNW 17:44:08 12° N 17:44:13 12° N
USA 308 2.8 17:40:22 10° WNW 17:44:39 89° NE 17:45:22 61° ESE
SL-16 R/B 2.3 17:43:28 10° NNW 17:49:10 75° WSW 17:54:49 10° SSE
SKYMED 2 3.5 17:47:47 35° NNE 17:49:35 90° NW 17:53:56 10° SSW
Cosmos 2237 Rocket 4.2 17:47:37 10° N 17:49:04 13° NNE 17:49:04 13° NNE
ARGOS 3.2 17:45:27 10° SSE 17:50:52 81° WSW 17:56:18 10° NNW
Cosmos 2082 Rocket 3.4 17:47:30 10° WSW 17:52:46 39° NW 17:56:57 16° NNE
deb Chang Zheng 4 4.1 17:52:08 10° S 17:56:23 58° WSW 18:00:39 10° NNW
COSMOS 2455 4.1 17:55:51 10° WSW 18:01:22 36° NW 18:04:54 20° NNE
Feng Yun 1-1 Rocket 4.3 17:59:49 10° SSE 18:05:44 89° E 18:11:36 10° NNW
USA 305 3.2 18:04:43 10° WNW 18:08:52 61° SW 18:08:52 61° SW
Cosmos 2333 Rocket 2.8 18:03:34 10° NNW 18:08:04 42° NNE 18:08:04 42° NNE
Cosmos 1356 Rocket 4.2 18:05:11 10° NNW 18:09:17 53° W 18:13:26 10° S
CZ-2C R/B 2.9 18:06:50 18° N 18:10:40 64° WNW 18:15:46 10° SSW
Cosmos 2219 Rocket 3.2 18:11:32 10° NNW 18:15:05 33° N 18:15:05 33° N
Aureole 3 Rocket 3.6 18:13:32 10° S 18:18:14 84° W 18:24:59 10° N
Cosmos 1515 Rocket 4.4 18:14:47 10° SSW 18:19:05 49° WNW 18:20:27 36° NNW
Cosmos 921 Rocket 4.3 18:17:59 10° SW 18:21:53 36° WNW 18:22:47 32° NW
Nadezhda 2 Rocket 4.4 18:17:36 10° N 18:24:03 72° ENE 18:24:23 71° ESE
Cosmos 371 Rocket 4.5 18:31:01 10° NNW 18:33:50 35° NNW 18:33:50 35° NNW
COSMO-SKYMED 1 4.2 18:36:23 28° NW 18:37:30 32° WNW 18:41:21 10° SW
USA 267 3.5 18:37:47 53° NNE 18:38:49 59° NNW 18:45:13 10° W
Meteor 1-27 Rocket 4.3 18:39:45 10° SSW 18:45:07 53° WNW 18:46:30 42° NNW
Cosmos 2360 Rocket 2.7 18:44:22 10° NW 18:49:54 56° WSW 18:50:07 55° WSW
Cosmos 2322 Rocket 4.2 19:07:40 10° NW 19:12:10 25° WSW 19:16:40 10° SSW
NOSS 3-4 (A) 4.2 19:11:06 10° NW 19:16:19 57° NW 19:16:19 57° NW
NOSS 3-4 (C) 4.2 19:11:12 10° NW 19:16:24 56° NW 19:16:24 56° NW
ATLAS 2AS CENTAUR R/B 3.8 19:14:06 10° NW 19:18:44 37° NNW 19:18:44 37° NNW
Cosmos 2333 Rocket 4.4 19:48:08 10° NW 19:50:08 20° NW 19:50:08 20° NW
